EJU41ZN EGNT-LEPA

Flight info

Callsign EJU41ZN
Flight time N/A
Altitude 35000
Route GIRLI P18 GASKO P16 RIBEL UP16 CROFT UL612 HON DCT SITET UN859 SOPIL/N0445F370 DCT BALAN DCT EVPOK DCT NARAK DCT GAI DCT LOMRA DCT ROCAN DCT IBRAP DCT LUKEV N13 LORES
Aircraft A320/M-SDE3FGHIRWY/LB1

Departure

Time 2026-04-30 20:35
Airport Newcastle International Airport (EGNT)

Arrival

Time N/A
Airport Palma de Mallorca Airport (LEPA)
Time Latitude Longitude Altitude Speed Heading
2026-04-30 20:12 55.03667 -1.70778 267 ft 0 kts
2026-04-30 20:27 55.03639 -1.70782 267 ft 2 kts
2026-04-30 20:28 55.03603 -1.70811 267 ft 3 kts 64°
2026-04-30 20:28 55.03578 -1.70845 267 ft 2 kts
2026-04-30 20:29 55.03577 -1.70845 267 ft 0 kts
2026-04-30 20:32 55.03595 -1.70794 267 ft 8 kts 80°
2026-04-30 20:32 55.03564 -1.70650 267 ft 6 kts 160°
2026-04-30 20:33 55.03528 -1.70645 267 ft 4 kts 179°
2026-04-30 20:33 55.03446 -1.70647 268 ft 10 kts 181°
2026-04-30 20:33 55.03381 -1.70629 268 ft 10 kts 143°
2026-04-30 20:34 55.03513 -1.70032 263 ft 79 kts 65°
2026-04-30 20:34 55.04265 -1.67091 623 ft 159 kts 70°
2026-04-30 20:35 55.04680 -1.65287 1356 ft 161 kts 71°
2026-04-30 20:35 55.05165 -1.63472 1850 ft 172 kts 76°
2026-04-30 20:35 55.06307 -1.59190 2367 ft 215 kts 74°
2026-04-30 20:36 55.06582 -1.56691 2931 ft 207 kts 105°
2026-04-30 20:36 55.06008 -1.54485 3578 ft 202 kts 136°
2026-04-30 20:36 55.03173 -1.53166 4231 ft 238 kts 179°
2026-04-30 20:37 55.01499 -1.53206 5010 ft 243 kts 179°
2026-04-30 20:37 54.99795 -1.53233 5829 ft 246 kts 179°
2026-04-30 20:37 54.98074 -1.53411 6651 ft 251 kts 188°
2026-04-30 20:37 54.96403 -1.54390 7414 ft 258 kts 204°
2026-04-30 20:38 54.94842 -1.55982 8184 ft 262 kts 207°
2026-04-30 20:38 54.93271 -1.57609 8973 ft 264 kts 207°
2026-04-30 20:38 54.91685 -1.59248 9775 ft 266 kts 206°
2026-04-30 20:39 54.88387 -1.62641 10682 ft 295 kts 207°
2026-04-30 20:39 54.86552 -1.64513 10888 ft 316 kts 207°
2026-04-30 20:39 54.84632 -1.66481 11411 ft 324 kts 207°
2026-04-30 20:40 54.80712 -1.70509 12762 ft 331 kts 207°
2026-04-30 20:40 54.78725 -1.72544 13429 ft 333 kts 207°
2026-04-30 20:40 54.76718 -1.74601 14083 ft 337 kts 207°
2026-04-30 20:41 54.72641 -1.78759 15181 ft 344 kts 205°
2026-04-30 20:41 54.70442 -1.80392 15724 ft 345 kts 194°
2026-04-30 20:41 54.68102 -1.81303 16257 ft 347 kts 188°
2026-04-30 20:41 54.65714 -1.82057 16811 ft 350 kts 188°
2026-04-30 20:42 54.63304 -1.82809 17355 ft 354 kts 188°
2026-04-30 20:42 54.60867 -1.83569 17888 ft 357 kts 188°
2026-04-30 20:42 54.55926 -1.85110 18894 ft 364 kts 188°
2026-04-30 20:43 54.53427 -1.85898 19373 ft 366 kts 189°
2026-04-30 20:43 54.50915 -1.86691 19878 ft 368 kts 188°
2026-04-30 20:43 54.48395 -1.87486 20373 ft 369 kts 189°
2026-04-30 20:44 54.43323 -1.89083 21339 ft 372 kts 188°
2026-04-30 20:44 54.40771 -1.89884 21817 ft 374 kts 188°
2026-04-30 20:44 54.35634 -1.91497 22752 ft 377 kts 188°
2026-04-30 20:45 54.31335 -1.92834 23504 ft 380 kts 188°
2026-04-30 20:45 54.28729 -1.93643 23921 ft 381 kts 188°
2026-04-30 20:45 54.26116 -1.94470 24291 ft 383 kts 191°
2026-04-30 20:46 54.19045 -2.01063 25309 ft 400 kts 219°
2026-04-30 20:46 54.17020 -2.04341 25640 ft 402 kts 219°
2026-04-30 20:47 54.12934 -2.10916 26312 ft 406 kts 219°
2026-04-30 20:47 54.10872 -2.14218 26659 ft 407 kts 219°
2026-04-30 20:48 54.06723 -2.20832 27306 ft 410 kts 219°
2026-04-30 20:48 54.04631 -2.24148 27621 ft 412 kts 219°
2026-04-30 20:48 54.02455 -2.27314 27933 ft 410 kts 212°
2026-04-30 20:48 54.00030 -2.29829 28228 ft 408 kts 203°
2026-04-30 20:49 53.97413 -2.31679 28511 ft 408 kts 198°
2026-04-30 20:49 53.94754 -2.33387 28820 ft 409 kts 198°
2026-04-30 20:49 53.92082 -2.35106 29112 ft 411 kts 198°
2026-04-30 20:50 53.86714 -2.38567 29649 ft 415 kts 198°
2026-04-30 20:50 53.84011 -2.40303 29904 ft 416 kts 198°
2026-04-30 20:50 53.81296 -2.42038 30147 ft 418 kts 198°
2026-04-30 20:50 53.78571 -2.43777 30378 ft 420 kts 198°
2026-04-30 20:51 53.75833 -2.45520 30590 ft 421 kts 198°
2026-04-30 20:51 53.70381 -2.48985 31146 ft 421 kts 198°
2026-04-30 20:51 53.67633 -2.50672 31410 ft 419 kts 194°
2026-04-30 20:52 53.64791 -2.51677 31680 ft 417 kts 184°
2026-04-30 20:52 53.61903 -2.51784 31959 ft 415 kts 174°
2026-04-30 20:52 53.56346 -2.49383 32511 ft 415 kts 158°
2026-04-30 20:53 53.53692 -2.47482 32787 ft 415 kts 158°
2026-04-30 20:53 53.51032 -2.45593 33062 ft 415 kts 158°
2026-04-30 20:53 53.48367 -2.43711 33186 ft 415 kts 158°
2026-04-30 20:54 53.40381 -2.38107 33229 ft 416 kts 158°
2026-04-30 20:54 53.37710 -2.36239 33493 ft 415 kts 158°
2026-04-30 20:55 53.32386 -2.32511 34060 ft 415 kts 158°
2026-04-30 20:55 53.29726 -2.30648 34315 ft 415 kts 158°
2026-04-30 20:55 53.27065 -2.28784 34536 ft 415 kts 158°
2026-04-30 20:56 53.21740 -2.25062 34977 ft 415 kts 158°
2026-04-30 20:56 53.19077 -2.23206 35157 ft 415 kts 158°
2026-04-30 20:57 53.11115 -2.17674 35209 ft 412 kts 158°
2026-04-30 20:57 53.05817 -2.14006 35204 ft 412 kts 158°
2026-04-30 20:58 52.97872 -2.08526 35204 ft 412 kts 158°
2026-04-30 20:58 52.92611 -2.04903 35200 ft 412 kts 158°
2026-04-30 20:59 52.84672 -1.99463 35204 ft 412 kts 158°
2026-04-30 21:00 52.74093 -1.92257 35212 ft 411 kts 158°
2026-04-30 21:01 52.66163 -1.86877 35212 ft 411 kts 158°
2026-04-30 21:02 52.58228 -1.81508 35212 ft 411 kts 158°
2026-04-30 21:02 52.52937 -1.77934 35213 ft 411 kts 158°
2026-04-30 21:03 52.47632 -1.74372 35212 ft 412 kts 158°
2026-04-30 21:03 52.42324 -1.70828 35212 ft 412 kts 158°
2026-04-30 21:04 52.37038 -1.67293 35220 ft 401 kts 158°
2026-04-30 21:04 52.34505 -1.65574 35215 ft 386 kts 157°
2026-04-30 21:04 52.29658 -1.61893 35216 ft 390 kts 155°
2026-04-30 21:05 52.24707 -1.57919 35240 ft 402 kts 155°
2026-04-30 21:05 52.19599 -1.53897 35245 ft 412 kts 155°
2026-04-30 21:06 52.14393 -1.49875 35245 ft 415 kts 155°
2026-04-30 21:06 52.09167 -1.45860 35238 ft 415 kts 155°
2026-04-30 21:07 52.03953 -1.41872 35234 ft 414 kts 155°
2026-04-30 21:07 51.98745 -1.37880 35190 ft 414 kts 155°
2026-04-30 21:08 51.93533 -1.33897 35190 ft 414 kts 155°
2026-04-30 21:08 51.88314 -1.29930 35191 ft 414 kts 155°
2026-04-30 21:09 51.83095 -1.25969 35193 ft 414 kts 155°
2026-04-30 21:09 51.77869 -1.22014 35195 ft 415 kts 155°
2026-04-30 21:10 51.72642 -1.18064 35191 ft 415 kts 155°
2026-04-30 21:10 51.67399 -1.14126 35187 ft 415 kts 155°
2026-04-30 21:11 51.62172 -1.10199 35187 ft 415 kts 155°
2026-04-30 21:11 51.56943 -1.06263 35186 ft 415 kts 155°
2026-04-30 21:12 51.51706 -1.02340 35182 ft 415 kts 155°
2026-04-30 21:12 51.46461 -0.98436 35180 ft 416 kts 155°
2026-04-30 21:13 51.41209 -0.94537 35167 ft 416 kts 155°
2026-04-30 21:13 51.35952 -0.90630 35182 ft 416 kts 155°
2026-04-30 21:14 51.30697 -0.86744 35182 ft 416 kts 155°
2026-04-30 21:14 51.25431 -0.82854 35183 ft 417 kts 155°
2026-04-30 21:15 51.20163 -0.78966 35182 ft 417 kts 155°
2026-04-30 21:15 51.14930 -0.75118 35182 ft 417 kts 155°
2026-04-30 21:16 51.09658 -0.71245 35182 ft 417 kts 155°
2026-04-30 21:16 51.04413 -0.67408 35182 ft 417 kts 155°
2026-04-30 21:17 50.99137 -0.63567 35181 ft 417 kts 155°
2026-04-30 21:17 50.93862 -0.59731 35174 ft 417 kts 155°
2026-04-30 21:18 50.88586 -0.55900 35177 ft 417 kts 155°
2026-04-30 21:18 50.83309 -0.52080 35169 ft 417 kts 155°
2026-04-30 21:19 50.78028 -0.48264 35167 ft 417 kts 155°
2026-04-30 21:19 50.72740 -0.44468 35170 ft 418 kts 155°
2026-04-30 21:20 50.67446 -0.40675 35163 ft 418 kts 155°
2026-04-30 21:20 50.62151 -0.36879 35171 ft 419 kts 155°
2026-04-30 21:21 50.56842 -0.33081 35164 ft 419 kts 155°
2026-04-30 21:22 50.48870 -0.27394 35162 ft 420 kts 155°
2026-04-30 21:23 50.38257 -0.19865 35160 ft 420 kts 156°
2026-04-30 21:23 50.30256 -0.14223 35156 ft 421 kts 156°
2026-04-30 21:24 50.24915 -0.10462 35157 ft 421 kts 155°
2026-04-30 21:24 50.19574 -0.06700 35150 ft 421 kts 156°
2026-04-30 21:25 50.11525 -0.01068 35141 ft 424 kts 156°
2026-04-30 21:26 50.03039 0.02741 35153 ft 424 kts 165°
2026-04-30 21:27 49.94470 0.06104 35153 ft 423 kts 165°
2026-04-30 21:27 49.88750 0.08350 35147 ft 424 kts 165°
2026-04-30 21:28 49.80167 0.11707 35145 ft 424 kts 165°
2026-04-30 21:29 49.71581 0.15068 35144 ft 425 kts 165°
2026-04-30 21:30 49.57241 0.20788 35143 ft 426 kts 165°
2026-04-30 21:31 49.42852 0.26574 35141 ft 429 kts 165°
2026-04-30 21:32 49.35143 0.29648 35146 ft 430 kts 165°
2026-04-30 21:32 49.29342 0.31959 35147 ft 431 kts 165°
2026-04-30 21:33 49.20653 0.35630 35144 ft 433 kts 164°
2026-04-30 21:34 49.14848 0.38107 35149 ft 433 kts 164°
2026-04-30 21:34 49.06121 0.41763 35153 ft 434 kts 164°
2026-04-30 21:35 49.00292 0.44191 35152 ft 434 kts 164°
2026-04-30 21:35 48.94468 0.46633 35167 ft 434 kts 164°
2026-04-30 21:36 48.88644 0.49062 35173 ft 434 kts 164°
2026-04-30 21:37 48.77012 0.53862 35176 ft 433 kts 165°
2026-04-30 21:37 48.71220 0.56139 35173 ft 432 kts 165°
2026-04-30 21:38 48.65393 0.58393 35171 ft 432 kts 165°
2026-04-30 21:38 48.59562 0.60662 35160 ft 433 kts 165°
2026-04-30 21:39 48.53726 0.62939 35156 ft 433 kts 165°
2026-04-30 21:39 48.47888 0.65245 35156 ft 434 kts 164°
2026-04-30 21:40 48.42057 0.67630 35159 ft 435 kts 164°
2026-04-30 21:40 48.36219 0.70031 35164 ft 435 kts 164°
2026-04-30 21:41 48.30377 0.72404 35165 ft 435 kts 164°
2026-04-30 21:41 48.24536 0.74751 35167 ft 435 kts 164°
2026-04-30 21:42 48.18725 0.77056 35175 ft 434 kts 165°
2026-04-30 21:42 48.12882 0.79345 35178 ft 434 kts 165°
2026-04-30 21:43 48.07044 0.81626 35177 ft 433 kts 165°
2026-04-30 21:43 48.01211 0.83904 35175 ft 433 kts 165°
2026-04-30 21:44 47.95385 0.86188 35171 ft 433 kts 165°
2026-04-30 21:44 47.89555 0.88465 35168 ft 433 kts 165°
2026-04-30 21:45 47.83729 0.90726 35171 ft 433 kts 165°
2026-04-30 21:45 47.77906 0.92984 35179 ft 432 kts 165°
2026-04-30 21:46 47.72082 0.95231 35178 ft 432 kts 165°
2026-04-30 21:46 47.66263 0.97474 35178 ft 432 kts 165°
2026-04-30 21:47 47.60446 0.99719 35179 ft 432 kts 165°
2026-04-30 21:47 47.54666 1.01942 35182 ft 432 kts 165°
2026-04-30 21:48 47.48846 1.04174 35182 ft 432 kts 165°
2026-04-30 21:48 47.42977 1.06205 35280 ft 435 kts 173°
2026-04-30 21:49 47.39951 1.06391 35404 ft 437 kts 180°
2026-04-30 21:49 47.36911 1.06298 35532 ft 438 kts 180°
2026-04-30 21:49 47.33860 1.06210 35656 ft 438 kts 180°
2026-04-30 21:49 47.30812 1.06132 35778 ft 438 kts 180°
2026-04-30 21:50 47.27763 1.06061 35908 ft 438 kts 180°
2026-04-30 21:50 47.24712 1.05990 36033 ft 438 kts 180°
2026-04-30 21:50 47.21658 1.05920 36159 ft 438 kts 180°
2026-04-30 21:50 47.18611 1.05851 36284 ft 438 kts 180°
2026-04-30 21:51 47.15559 1.05784 36414 ft 439 kts 180°
2026-04-30 21:51 47.12504 1.05715 36542 ft 439 kts 180°
2026-04-30 21:51 47.09445 1.05641 36674 ft 440 kts 180°
2026-04-30 21:51 47.06383 1.05568 36799 ft 440 kts 180°
2026-04-30 21:52 47.03329 1.05502 36929 ft 440 kts 180°
2026-04-30 21:52 47.00270 1.05426 37086 ft 439 kts 181°
2026-04-30 21:52 46.94151 1.05183 37186 ft 441 kts 181°
2026-04-30 21:53 46.88015 1.04888 37188 ft 441 kts 181°
2026-04-30 21:53 46.81922 1.04612 37187 ft 441 kts 181°
2026-04-30 21:54 46.75787 1.04352 37194 ft 441 kts 181°
2026-04-30 21:54 46.69648 1.04099 37194 ft 441 kts 181°
2026-04-30 21:55 46.63509 1.03838 37195 ft 441 kts 181°
2026-04-30 21:55 46.57365 1.03578 37200 ft 442 kts 181°
2026-04-30 21:56 46.51228 1.03626 37201 ft 442 kts 172°
2026-04-30 21:56 46.45219 1.05481 37201 ft 442 kts 167°
2026-04-30 21:57 46.39226 1.07490 37204 ft 442 kts 167°
2026-04-30 21:57 46.33224 1.09484 37206 ft 443 kts 167°
2026-04-30 21:58 46.27217 1.11479 37204 ft 443 kts 167°
2026-04-30 21:58 46.21208 1.13473 37215 ft 443 kts 167°
2026-04-30 21:59 46.15197 1.15461 37215 ft 443 kts 167°
2026-04-30 22:00 46.06182 1.18443 37220 ft 443 kts 168°
2026-04-30 22:00 45.97168 1.21418 37231 ft 442 kts 168°
2026-04-30 22:01 45.91180 1.23392 37233 ft 441 kts 168°
2026-04-30 22:01 45.85229 1.25342 37235 ft 441 kts 168°
2026-04-30 22:02 45.79246 1.27295 37231 ft 441 kts 168°
2026-04-30 22:02 45.73268 1.29243 37228 ft 441 kts 168°
2026-04-30 22:03 45.67284 1.31184 37212 ft 441 kts 168°
2026-04-30 22:03 45.61295 1.33124 37211 ft 441 kts 168°
2026-04-30 22:04 45.55302 1.35070 37203 ft 442 kts 169°
2026-04-30 22:05 45.46299 1.37986 37190 ft 443 kts 169°
2026-04-30 22:05 45.40284 1.39919 37198 ft 444 kts 169°
2026-04-30 22:06 45.34259 1.41852 37200 ft 444 kts 169°
2026-04-30 22:06 45.25202 1.44763 37200 ft 445 kts 169°
2026-04-30 22:07 45.19156 1.46702 37208 ft 446 kts 169°
2026-04-30 22:07 45.13103 1.48628 37201 ft 446 kts 170°
2026-04-30 22:08 45.07074 1.50547 37203 ft 447 kts 170°
2026-04-30 22:08 45.01000 1.52484 37208 ft 448 kts 170°
2026-04-30 22:09 44.94923 1.54411 37193 ft 448 kts 171°
2026-04-30 22:09 44.88847 1.56332 37205 ft 447 kts 171°
2026-04-30 22:10 44.82774 1.58245 37214 ft 447 kts 171°
2026-04-30 22:10 44.76703 1.60165 37215 ft 447 kts 171°
2026-04-30 22:11 44.67598 1.63036 37217 ft 447 kts 171°
2026-04-30 22:12 44.61527 1.64940 37219 ft 447 kts 171°
2026-04-30 22:12 44.55458 1.66833 37208 ft 447 kts 171°
2026-04-30 22:13 44.49387 1.68724 37216 ft 447 kts 171°
2026-04-30 22:13 44.43307 1.70614 37220 ft 447 kts 171°
2026-04-30 22:14 44.37229 1.72500 37198 ft 448 kts 172°
2026-04-30 22:14 44.31139 1.74388 37196 ft 449 kts 172°
2026-04-30 22:15 44.25024 1.76077 37209 ft 447 kts 175°
2026-04-30 22:15 44.18876 1.77368 37194 ft 447 kts 176°
2026-04-30 22:16 44.12718 1.78602 37198 ft 448 kts 176°
2026-04-30 22:17 44.00388 1.81308 37193 ft 449 kts 175°
2026-04-30 22:17 43.91126 1.83095 37204 ft 446 kts 180°
2026-04-30 22:18 43.81842 1.83819 37211 ft 445 kts 182°
2026-04-30 22:19 43.72554 1.84593 37203 ft 446 kts 181°
2026-04-30 22:20 43.63262 1.85533 37206 ft 446 kts 181°
2026-04-30 22:20 43.55018 1.86334 37204 ft 446 kts 181°
2026-04-30 22:21 43.48832 1.86930 37209 ft 446 kts 181°
2026-04-30 22:21 43.41642 1.87612 37214 ft 445 kts 181°
2026-04-30 22:22 43.35465 1.88204 37201 ft 445 kts 181°
2026-04-30 22:22 43.30294 1.88698 37206 ft 444 kts 181°
2026-04-30 22:23 43.24127 1.89283 37211 ft 444 kts 181°
2026-04-30 22:23 43.18006 1.89870 37202 ft 444 kts 180°
2026-04-30 22:24 43.11849 1.90470 37210 ft 443 kts 180°
2026-04-30 22:24 43.05702 1.91055 37214 ft 443 kts 181°
2026-04-30 22:25 42.99550 1.91630 37188 ft 443 kts 181°
2026-04-30 22:25 42.93396 1.92214 37196 ft 443 kts 181°
2026-04-30 22:26 42.84157 1.93088 37204 ft 444 kts 181°
2026-04-30 22:27 42.77999 1.93665 37209 ft 444 kts 181°
2026-04-30 22:27 42.68761 1.94542 37205 ft 444 kts 179°
2026-04-30 22:28 42.59645 1.97421 37201 ft 451 kts 170°
2026-04-30 22:29 42.47511 2.01801 37223 ft 451 kts 169°
2026-04-30 22:31 42.26291 2.09364 37223 ft 450 kts 169°
2026-04-30 22:32 42.11208 2.14714 37212 ft 449 kts 169°
2026-04-30 22:33 41.96103 2.20034 37196 ft 448 kts 169°
2026-04-30 22:35 41.81038 2.25304 37203 ft 447 kts 169°
2026-04-30 22:36 41.66013 2.30562 37180 ft 446 kts 169°
2026-04-30 22:37 41.54001 2.34737 37179 ft 446 kts 169°
2026-04-30 22:38 41.42037 2.38881 37184 ft 445 kts 169°
2026-04-30 22:39 41.33053 2.41973 37183 ft 444 kts 169°
2026-04-30 22:40 41.15153 2.48141 37185 ft 442 kts 169°
2026-04-30 22:41 41.00282 2.53211 37176 ft 441 kts 169°
2026-04-30 22:42 40.88392 2.57280 36407 ft 448 kts 170°
2026-04-30 22:43 40.82284 2.59345 34692 ft 456 kts 171°
2026-04-30 22:43 40.76137 2.61429 33387 ft 452 kts 171°
2026-04-30 22:44 40.70111 2.63482 32247 ft 443 kts 171°
2026-04-30 22:45 40.58400 2.67426 30029 ft 429 kts 170°
2026-04-30 22:45 40.52673 2.69357 28952 ft 420 kts 170°
2026-04-30 22:46 40.47286 2.72226 27930 ft 418 kts 155°
2026-04-30 22:47 40.37303 2.79483 25997 ft 402 kts 155°
2026-04-30 22:47 40.32450 2.82985 25083 ft 395 kts 155°
2026-04-30 22:48 40.27672 2.86417 24164 ft 389 kts 154°
2026-04-30 22:49 40.20631 2.91486 22723 ft 380 kts 154°
2026-04-30 22:49 40.13787 2.96424 21359 ft 373 kts 154°
2026-04-30 22:50 40.04565 3.01664 19974 ft 344 kts 180°
2026-04-30 22:51 39.99961 3.00752 19130 ft 333 kts 202°
2026-04-30 22:51 39.95587 2.98800 18401 ft 330 kts 201°
2026-04-30 22:52 39.93422 2.97833 17980 ft 328 kts 202°
2026-04-30 22:52 39.89153 2.95936 16822 ft 321 kts 202°
2026-04-30 22:53 39.85001 2.93987 15564 ft 311 kts 210°
2026-04-30 22:53 39.81819 2.90483 14583 ft 297 kts 237°
2026-04-30 22:53 39.80650 2.88259 14109 ft 296 kts 238°
2026-04-30 22:54 39.78430 2.84032 13467 ft 271 kts 237°
2026-04-30 22:55 39.75306 2.78093 12646 ft 266 kts 237°
2026-04-30 22:55 39.73222 2.74139 12142 ft 264 kts 237°
2026-04-30 22:56 39.71139 2.70187 11527 ft 265 kts 237°
2026-04-30 22:56 39.67988 2.64213 10456 ft 269 kts 237°
2026-04-30 22:57 39.65877 2.60216 9765 ft 269 kts 237°
2026-04-30 22:57 39.63788 2.56263 9138 ft 264 kts 237°
2026-04-30 22:58 39.61708 2.52333 8401 ft 264 kts 237°
2026-04-30 22:59 39.58621 2.46527 7192 ft 260 kts 237°
2026-04-30 22:59 39.55012 2.41518 6021 ft 265 kts 194°